• In Belarus
  • List of Countries
  • For 7 days
  • Water Temperature
  • Satellite Maps
  • Weather Map
  • Weather Widgets
  • user-avatar
    Login

    Hourly Weather Dhaka

    Today, 17 December, Sunday

    Time Temperature Precipitation Wind Pressure Humidity
    00:00 +21°C° 0 mm 1 mps 761 mmHg 53%
    01:00 +21°C° 0 mm 1 mps 761 mmHg 55%
    02:00 +21°C° 0 mm 1 mps 761 mmHg 57%
    03:00 +21°C° 0 mm 1 mps 761 mmHg 59%
    04:00 +20°C° 0 mm 1 mps 762 mmHg 61%
    05:00 +20°C° 0 mm 1 mps 762 mmHg 64%
    06:00 +17°C° 0 mm 0 mps 762 mmHg 67%
    07:00 +21°C° 0 mm 1 mps 762 mmHg 64%
    08:00 +22°C° 0 mm 1 mps 763 mmHg 61%
    09:00 +23°C° 0 mm 1 mps 763 mmHg 58%
    10:00 +25°C° 0 mm 1 mps 763 mmHg 55%
    11:00 +26°C° 0 mm 1 mps 762 mmHg 52%
    12:00 +27°C° 0 mm 1 mps 762 mmHg 52%
    13:00 +28°C° 0 mm 1 mps 762 mmHg 49%
    14:00 +28°C° 0 mm 1 mps 761 mmHg 46%
    15:00 +29°C° 0 mm 2 mps 760 mmHg 43%
    16:00 +27°C° 0 mm 2 mps 760 mmHg 47%
    17:00 +26°C° 0 mm 1 mps 760 mmHg 52%
    18:00 +24°C° 0 mm 1 mps 760 mmHg 61%
    19:00 +24°C° 0 mm 1 mps 761 mmHg 64%
    20:00 +23°C° 0 mm 1 mps 761 mmHg 66%
    21:00 +23°C° 0 mm 1 mps 761 mmHg 69%
    22:00 +23°C° 0 mm 1 mps 761 mmHg 71%
    23:00 +22°C° 0 mm 1 mps 762 mmHg 73%

    Tomorrow, 18 December, Monday

    Time Temperature Precipitation Wind Pressure Humidity
    00:00 +22°C° 0 mm 1 mps 762 mmHg 75%
    01:00 +22°C° 0 mm 1 mps 761 mmHg 77%
    02:00 +21°C° 0 mm 1 mps 761 mmHg 78%
    03:00 +21°C° 0 mm 1 mps 761 mmHg 80%
    04:00 +21°C° 0 mm 1 mps 761 mmHg 81%
    05:00 +20°C° 0 mm 1 mps 761 mmHg 82%
    06:00 +20°C° 0 mm 1 mps 761 mmHg 83%
    07:00 +21°C° 0 mm 1 mps 762 mmHg 78%
    08:00 +22°C° 0 mm 1 mps 762 mmHg 73%
    09:00 +24°C° 0 mm 1 mps 763 mmHg 68%
    10:00 +25°C° 0 mm 1 mps 763 mmHg 63%
    11:00 +26°C° 0 mm 2 mps 762 mmHg 57%
    12:00 +27°C° 0 mm 2 mps 762 mmHg 51%
    13:00 +27°C° 0 mm 1 mps 761 mmHg 49%
    14:00 +28°C° 0 mm 1 mps 761 mmHg 46%
    15:00 +28°C° 0 mm 1 mps 760 mmHg 44%
    16:00 +27°C° 0 mm 1 mps 760 mmHg 48%
    17:00 +26°C° 0 mm 1 mps 760 mmHg 51%
    18:00 +25°C° 0 mm 1 mps 760 mmHg 55%
    19:00 +24°C° 0 mm 1 mps 761 mmHg 57%
    20:00 +24°C° 0 mm 1 mps 761 mmHg 59%
    21:00 +23°C° 0 mm 2 mps 762 mmHg 61%
    22:00 +23°C° 0 mm 2 mps 762 mmHg 63%
    23:00 +23°C° 0 mm 2 mps 762 mmHg 64%

    Day after tomorrow, 19 December, Tuesday

    Time Temperature Precipitation Wind Pressure Humidity
    00:00 +21°C° 0 mm 2 mps 762 mmHg 66%
    01:00 +21°C° 0 mm 2 mps 761 mmHg 67%
    02:00 +20°C° 0 mm 2 mps 761 mmHg 69%
    03:00 +20°C° 0 mm 2 mps 761 mmHg 70%
    04:00 +21°C° 0 mm 1 mps 761 mmHg 71%
    05:00 +20°C° 0 mm 1 mps 761 mmHg 73%
    06:00 +20°C° 0 mm 1 mps 761 mmHg 74%
    07:00 +21°C° 0 mm 1 mps 762 mmHg 70%
    08:00 +22°C° 0 mm 1 mps 763 mmHg 65%
    09:00 +24°C° 0 mm 1 mps 763 mmHg 61%
    10:00 +25°C° 0 mm 1 mps 763 mmHg 56%
    11:00 +26°C° 0 mm 1 mps 762 mmHg 50%
    12:00 +28°C° 0 mm 1 mps 762 mmHg 45%
    13:00 +28°C° 0 mm 1 mps 761 mmHg 42%
    14:00 +29°C° 0 mm 1 mps 761 mmHg 40%
    15:00 +29°C° 0 mm 1 mps 760 mmHg 37%
    16:00 +28°C° 0 mm 1 mps 760 mmHg 41%
    17:00 +26°C° 0 mm 1 mps 760 mmHg 44%
    18:00 +25°C° 0 mm 1 mps 761 mmHg 47%
    19:00 +25°C° 0 mm 1 mps 761 mmHg 50%
    20:00 +24°C° 0 mm 1 mps 762 mmHg 52%
    21:00 +24°C° 0 mm 2 mps 762 mmHg 54%
    22:00 +23°C° 0 mm 2 mps 762 mmHg 56%
    23:00 +23°C° 0 mm 2 mps 762 mmHg 58%

    20 December, Wednesday

    Time Temperature Precipitation Wind Pressure Humidity
    00:00 +21°C° 0 mm 2 mps 762 mmHg 60%
    01:00 +21°C° 0 mm 2 mps 762 mmHg 61%
    02:00 +20°C° 0 mm 2 mps 761 mmHg 63%
    03:00 +20°C° 0 mm 2 mps 761 mmHg 65%
    04:00 +20°C° 0 mm 2 mps 761 mmHg 67%
    05:00 +19°C° 0 mm 2 mps 762 mmHg 69%
    06:00 +19°C° 0 mm 2 mps 762 mmHg 71%
    07:00 +20°C° 0 mm 2 mps 763 mmHg 67%
    08:00 +21°C° 0 mm 2 mps 763 mmHg 63%
    09:00 +24°C° 0 mm 2 mps 764 mmHg 59%
    10:00 +25°C° 0 mm 2 mps 764 mmHg 54%
    11:00 +27°C° 0 mm 2 mps 763 mmHg 50%
    12:00 +28°C° 0 mm 2 mps 763 mmHg 45%
    13:00 +29°C° 0 mm 1 mps 762 mmHg 42%
    14:00 +29°C° 0 mm 1 mps 761 mmHg 39%
    15:00 +29°C° 0 mm 1 mps 760 mmHg 36%
    16:00 +28°C° 0 mm 1 mps 761 mmHg 39%
    17:00 +27°C° 0 mm 1 mps 761 mmHg 43%
    18:00 +25°C° 0 mm 1 mps 761 mmHg 46%
    19:00 +25°C° 0 mm 1 mps 761 mmHg 48%
    20:00 +24°C° 0 mm 1 mps 762 mmHg 49%
    21:00 +24°C° 0 mm 1 mps 763 mmHg 51%
    22:00 +23°C° 0 mm 1 mps 762 mmHg 53%
    23:00 +23°C° 0 mm 1 mps 762 mmHg 54%

    21 December, Thursday

    Time Temperature Precipitation Wind Pressure Humidity
    00:00 +22°C° 0 mm 1 mps 762 mmHg 56%
    01:00 +22°C° 0 mm 1 mps 762 mmHg 57%
    02:00 +22°C° 0 mm 1 mps 762 mmHg 59%
    03:00 +21°C° 0 mm 1 mps 761 mmHg 61%
    04:00 +21°C° 0 mm 1 mps 762 mmHg 63%
    05:00 +21°C° 0 mm 1 mps 762 mmHg 65%
    06:00 +20°C° 0 mm 1 mps 762 mmHg 68%
    07:00 +22°C° 0 mm 1 mps 762 mmHg 64%
    08:00 +23°C° 0 mm 1 mps 763 mmHg 61%
    09:00 +24°C° 0 mm 1 mps 764 mmHg 58%
    10:00 +26°C° 0 mm 1 mps 763 mmHg 53%
    11:00 +27°C° 0 mm 1 mps 763 mmHg 48%
    12:00 +28°C° 0 mm 1 mps 762 mmHg 43%
    13:00 +29°C° 0 mm 1 mps 762 mmHg 41%
    14:00 +29°C° 0 mm 1 mps 761 mmHg 39%
    15:00 +29°C° 0 mm 2 mps 760 mmHg 37%
    16:00 +28°C° 0 mm 1 mps 760 mmHg 41%
    17:00 +27°C° 0 mm 1 mps 760 mmHg 44%
    18:00 +25°C° 0 mm 1 mps 760 mmHg 47%
    19:00 +25°C° 0 mm 1 mps 761 mmHg 49%
    20:00 +24°C° 0 mm 1 mps 761 mmHg 51%
    21:00 +24°C° 0 mm 1 mps 761 mmHg 52%
    22:00 +23°C° 0 mm 1 mps 761 mmHg 54%
    23:00 +23°C° 0 mm 1 mps 761 mmHg 55%

    22 December, Friday

    Time Temperature Precipitation Wind Pressure Humidity
    00:00 +23°C° 0 mm 1 mps 761 mmHg 57%
    01:00 +22°C° 0 mm 1 mps 760 mmHg 58%
    02:00 +22°C° 0 mm 1 mps 760 mmHg 59%
    03:00 +22°C° 0 mm 1 mps 760 mmHg 61%
    04:00 +21°C° 0 mm 1 mps 760 mmHg 63%
    05:00 +21°C° 0 mm 1 mps 760 mmHg 64%
    06:00 +20°C° 0 mm 1 mps 760 mmHg 66%
    07:00 +22°C° 0 mm 1 mps 761 mmHg 63%
    08:00 +23°C° 0 mm 1 mps 761 mmHg 59%
    09:00 +24°C° 0 mm 1 mps 762 mmHg 56%
    10:00 +26°C° 0 mm 1 mps 762 mmHg 51%
    11:00 +27°C° 0 mm 1 mps 761 mmHg 47%
    12:00 +28°C° 0 mm 1 mps 761 mmHg 42%
    13:00 +29°C° 0 mm 1 mps 760 mmHg 41%
    14:00 +29°C° 0 mm 1 mps 759 mmHg 39%
    15:00 +29°C° 0 mm 2 mps 758 mmHg 37%
    16:00 +28°C° 0 mm 1 mps 758 mmHg 41%
    17:00 +27°C° 0 mm 1 mps 758 mmHg 44%
    18:00 +26°C° 0 mm 1 mps 758 mmHg 47%
    19:00 +25°C° 0 mm 1 mps 759 mmHg 48%
    20:00 +25°C° 0 mm 1 mps 759 mmHg 50%
    21:00 +24°C° 0 mm 1 mps 759 mmHg 52%
    22:00 +24°C° 0 mm 1 mps 759 mmHg 53%
    23:00 +23°C° 0 mm 1 mps 759 mmHg 55%
    Show more

    XHprof extension not loaded